This demonstration page uses our WeatherBlox Daily Observations layout. Learn more.

Left ArrowRight Arrow

34.02893, -84.19858

Hourly Observations for November 6, 2019

Temp ( °F °C ) Dew Point ( °F °C ) Humidity (%) Winds ( mph kmh ) Pressure ( in mb ) Visibility ( mi km ) Precip ( " mm )
12:53 am 00:53 Clear 46 7.8 45 7.2 96 96 Calm 30.28 1026 10 16 0.00 0.00
1:53 am 01:53 Clear with Mist and Fog 45 7.2 43 6.1 93 93 Calm 30.28 1026 5 8 0.00 0.00
2:53 am 02:53 Clear 47 8.3 43 6.1 86 86 N 8 13 30.27 1025 10 16 0.00 0.00
3:53 am 03:53 Clear 46 7.8 42 5.6 86 86 Calm 30.29 1026 10 16 0.00 0.00
4:53 am 04:53 Clear 42 5.6 41 5 96 96 Calm 30.31 1026 9 14 0.00 0.00
5:53 am 05:53 Clear 40 4.4 39 3.9 97 97 Calm 30.33 1027 9 14 0.00 0.00
6:53 am 06:53 Clear 42 5.6 41 5 96 96 NNE 3 6 30.35 1028 10 16 0.00 0.00
7:53 am 07:53 Sunny 47 8.3 43 6.1 86 86 N 3 6 30.36 1028 10 16 0.00 0.00
8:53 am 08:53 Sunny 54 12.2 44 6.7 69 69 NNE 7 11 30.38 1029 10 16 0.00 0.00
9:53 am 09:53 Sunny 59 15 45 7.2 60 60 ENE 6 9 30.39 1029 10 16 0.00 0.00
10:53 am 10:53 Sunny 62 16.7 45 7.2 54 54 VRB 6 9 30.38 1029 10 16 0.00 0.00
11:53 am 11:53 Sunny 65 18.3 44 6.7 47 47 VRB 6 9 30.36 1028 10 16 0.00 0.00
12:53 pm 12:53 Sunny 67 19.4 44 6.7 44 44 VRB 6 9 30.33 1027 10 16 0.00 0.00
1:53 pm 13:53 Sunny 68 20 44 6.7 42 42 VRB 5 7 30.31 1026 10 16 0.00 0.00
2:53 pm 14:53 Sunny 69 20.6 44 6.7 41 41 VRB 7 11 30.29 1026 10 16 0.00 0.00
3:53 pm 15:53 Sunny 69 20.6 44 6.7 41 41 VRB 3 6 30.28 1026 10 16 0.00 0.00
4:53 pm 16:53 Sunny 67 19.4 46 7.8 47 47 Calm 30.29 1026 10 16 0.00 0.00
5:53 pm 17:53 Clear 62 16.7 47 8.3 58 58 E 5 7 30.30 1026 10 16 0.00 0.00
6:53 pm 18:53 Clear 58 14.4 48 8.9 70 70 E 3 6 30.31 1027 10 16 0.00 0.00
7:53 pm 19:53 Clear 58 14.4 47 8.3 67 67 E 3 6 30.31 1026 10 16 0.00 0.00
8:53 pm 20:53 Clear 55 12.8 47 8.3 74 74 E 3 6 30.32 1027 10 16 0.00 0.00
9:53 pm 21:53 Clear 54 12.2 47 8.3 77 77 Calm 30.32 1027 10 16 0.00 0.00
10:53 pm 22:53 Clear 54 12.2 46 7.8 75 75 E 3 6 30.30 1026 10 16 0.00 0.00
11:53 pm 23:53 Clear 53 11.7 46 7.8 77 77 Calm 30.29 1026 10 16 0.00 0.00

Powered by AerisWeather